Weather History for KPOF - December, 2012

Change the Weather History Date:

Wednesday, December 12, 2012

  Actual Average Record
Temperature  
Mean Temperature 34 °F -  
Max Temperature 48 °F 47 °F 75 °F (1948)
Min Temperature 21 °F 28 °F -2 °F (1962)
Degree Days  
Heating Degree Days 30    
Moisture  
Dew Point 26 °F    
Average Humidity 75    
Maximum Humidity 89    
Minimum Humidity 48    
Precipitation  
Precipitation 0.00 in - - ()
Sea Level Pressure  
Sea Level Pressure 30.34 in    
Wind  
Wind Speed 1 mph (South)    
Max Wind Speed 7 mph    
Max Gust Speed -    
Visibility 9 miles    
Events      
Averages and records for this station are not official NWS values.
T = Trace of Precipitation, MM = Missing Value Source: NWS Daily Summary

Daily Weather History Graph

Daily Weather History Graph

Search for Another Location

Airport or City:

Trip Planner

Search our weather history database for the weather conditions in past years. The results will help you decide how hot, cold, wet, or windy it might be!

Date:

Astronomy

Dec. 12, 2012 Rise Set
Actual Time 7:04 AM CST 4:45 PM CST
Civil Twilight 6:36 AM CST 5:14 PM CST
Nautical Twilight 6:03 AM CST 5:46 PM CST
Astronomical Twilight 5:32 AM CST 6:18 PM CST
Moon 6:09 AM CST (12/12) 4:22 PM CST (12/12)
Length of Visible Light 10h 38m
Length of Day
9h 40m
Waning Crescent, 1% of the Moon is Illuminated
Dec 12
Waning Crescent
Dec 13
New
Dec 19
First Quarter
Dec 28
Full
Jan 4
Last Quarter

Hourly Weather History & Observations

Time (CST) Temp. Windchill Dew Point Humidity Pressure Visibility Wind Dir Wind Speed Gust Speed Precip Events Conditions
12:53 AM 26.1 °F - 23.0 °F 88% 30.29 in 6.0 mi Calm Calm - N/A   Clear
1:53 AM 25.0 °F - 21.9 °F 88% 30.29 in 10.0 mi Calm Calm - N/A   Clear
2:53 AM 25.0 °F - 21.0 °F 85% 30.30 in 8.0 mi Calm Calm - N/A   Clear
3:53 AM 24.1 °F - 19.9 °F 84% 30.30 in 10.0 mi Calm Calm - N/A   Clear
4:53 AM 23.0 °F - 19.9 °F 88% 30.30 in 10.0 mi Calm Calm - N/A   Clear
6:53 AM 21.9 °F - 18.0 °F 85% 30.35 in 10.0 mi Calm Calm - N/A   Clear
7:53 AM 24.1 °F - 21.0 °F 88% 30.37 in 9.0 mi Calm Calm - N/A   Clear
8:53 AM 30.9 °F - 26.1 °F 82% 30.38 in 8.0 mi Calm Calm - N/A   Clear
9:53 AM 36.0 °F - 30.0 °F 79% 30.40 in 10.0 mi Calm Calm - N/A   Clear
10:53 AM 39.9 °F 36.7 °F 28.0 °F 63% 30.40 in 10.0 mi SSW 4.6 mph - N/A   Clear
11:53 AM 43.0 °F 39.5 °F 30.0 °F 60% 30.37 in 10.0 mi South 5.8 mph - N/A   Clear
12:53 PM 45.0 °F 41.2 °F 28.0 °F 52% 30.35 in 10.0 mi SSW 6.9 mph - N/A   Clear
1:53 PM 46.9 °F - 28.9 °F 50% 30.33 in 10.0 mi Variable 3.5 mph - N/A   Clear
2:53 PM 48.0 °F - 28.9 °F 48% 30.33 in 10.0 mi Calm Calm - N/A   Clear
3:53 PM 46.9 °F - 30.0 °F 52% 30.32 in 10.0 mi SE 6.9 mph - N/A   Clear
4:53 PM 45.0 °F - 28.9 °F 53% 30.33 in 10.0 mi Calm Calm - N/A   Clear
5:53 PM 37.9 °F - 28.9 °F 70% 30.35 in 10.0 mi Calm Calm - N/A   Clear
6:53 PM 35.1 °F - 28.0 °F 76% 30.36 in 10.0 mi Calm Calm - N/A   Clear
7:53 PM 30.9 °F - 27.0 °F 85% 30.36 in 10.0 mi Calm Calm - N/A   Clear
8:53 PM 30.0 °F - 27.0 °F 88% 30.36 in 8.0 mi Calm Calm - N/A   Clear
9:53 PM 28.9 °F - 26.1 °F 89% 30.36 in 10.0 mi Calm Calm - N/A   Clear
10:53 PM 27.0 °F - 24.1 °F 89% 30.36 in 10.0 mi Calm Calm - N/A   Clear
11:53 PM 28.9 °F - 25.0 °F 85% 30.36 in 8.0 mi Calm Calm - N/A   Clear